| time (UTC) | temp F | wind direction | speed MPH | gust MPH | rain 1hr in | rain 24hr in | rain mn in | humidity % | barometer mb |
| 20260505114224 | 57 | 225 | 2.0 | 6.0 | 0.00 | 0.00 | 0.00 | 91 | 1016.7 |
| 20260505113721 | 57 | 239 | 3.0 | 6.0 | 0.00 | 0.00 | 0.00 | 91 | 1017.0 |
| 20260505113217 | 57 | 208 | 9.0 | 11.0 | 0.00 | 0.00 | 0.00 | 92 | 1017.1 |
| 20260505112713 | 56 | 231 | 2.0 | 4.0 | 0.00 | 0.00 | 0.00 | 93 | 1017.2 |
| 20260505112211 | 56 | 197 | 5.0 | 6.0 | 0.00 | 0.00 | 0.00 | 93 | 1016.9 |
| 20260505111706 | 56 | 225 | 3.0 | 4.0 | 0.00 | 0.00 | 0.00 | 93 | 1017.0 |
| 20260505111202 | 56 | 232 | 4.0 | 7.0 | 0.00 | 0.00 | 0.00 | 93 | 1017.0 |
| 20260505110658 | 56 | 203 | 3.0 | 4.0 | 0.00 | 0.00 | 0.00 | 93 | 1017.0 |
| 20260505110156 | 56 | 238 | 2.0 | 7.0 | 0.00 | 0.00 | 0.00 | 94 | 1016.9 |
| 20260505102131 | 54 | 208 | 5.0 | 8.0 | 0.00 | 0.00 | 0.00 | 96 | 1016.2 |
| 20260505101630 | 54 | 158 | 5.0 | 8.0 | 0.00 | 0.00 | 0.00 | 97 | 1016.3 |
| 20260505101126 | 54 | 212 | 2.0 | 7.0 | 0.00 | 0.00 | 0.00 | 97 | 1016.2 |
| 20260505100622 | 53 | 195 | 3.0 | 4.0 | 0.00 | 0.00 | 0.00 | 97 | 1016.0 |
| 20260505100119 | 53 | 205 | 3.0 | 4.0 | 0.00 | 0.00 | 0.00 | 97 | 1015.9 |
| 20260505095615 | 53 | 207 | 4.0 | 6.0 | 0.00 | 0.00 | 0.00 | 97 | 1016.0 |
| 20260505095112 | 53 | 187 | 2.0 | 3.0 | 0.00 | 0.00 | 0.00 | 97 | 1016.0 |
| 20260505094608 | 53 | 200 | 0.0 | 2.0 | 0.00 | 0.00 | 0.00 | 97 | 1016.0 |
| 20260505094104 | 53 | 233 | 2.0 | 4.0 | 0.00 | 0.00 | 0.00 | 97 | 1016.0 |
| 20260505093601 | 53 | 211 | 2.0 | 3.0 | 0.00 | 0.00 | 0.00 | 96 | 1016.1 |
| 20260505093058 | 54 | 182 | 2.0 | 7.0 | 0.00 | 0.00 | 0.00 | 96 | 1015.9 |
| 20260505092556 | 54 | 254 | 2.0 | 3.0 | 0.00 | 0.00 | 0.00 | 96 | 1015.9 |
| 20260505092054 | 54 | 177 | 2.0 | 4.0 | 0.00 | 0.00 | 0.00 | 96 | 1016.0 |
| 20260505091550 | 54 | 239 | 2.0 | 3.0 | 0.00 | 0.00 | 0.00 | 96 | 1015.8 |
| 20260505091049 | 54 | 208 | 1.0 | 3.0 | 0.00 | 0.00 | 0.00 | 96 | 1015.9 |
| 20260505090547 | 54 | 212 | 3.0 | 4.0 | 0.00 | 0.00 | 0.00 | 96 | 1015.9 |
| 20260505090044 | 54 | 199 | 3.0 | 4.0 | 0.00 | 0.00 | 0.00 | 95 | 1015.9 |
| 20260505085542 | 54 | 196 | 2.0 | 3.0 | 0.00 | 0.00 | 0.00 | 95 | 1016.0 |
| 20260505085040 | 54 | 240 | 3.0 | 4.0 | 0.00 | 0.00 | 0.00 | 95 | 1015.9 |
| 20260505084537 | 54 | 241 | 2.0 | 6.0 | 0.00 | 0.00 | 0.00 | 95 | 1015.9 |
| 20260505084036 | 54 | 204 | 4.0 | 6.0 | 0.00 | 0.00 | 0.00 | 95 | 1015.9 |
| 20260505083532 | 54 | 239 | 4.0 | 6.0 | 0.00 | 0.00 | 0.00 | 95 | 1015.9 |
| 20260505083029 | 54 | 237 | 1.0 | 3.0 | 0.00 | 0.00 | 0.00 | 95 | 1016.1 |
| 20260505082525 | 54 | 220 | 5.0 | 7.0 | 0.00 | 0.00 | 0.00 | 95 | 1016.0 |
| 20260505082021 | 54 | 213 | 2.0 | 7.0 | 0.00 | 0.00 | 0.00 | 94 | 1016.2 |
| 20260505081518 | 54 | 229 | 6.0 | 8.0 | 0.00 | 0.00 | 0.00 | 94 | 1016.0 |
| 20260505081015 | 54 | 233 | 1.0 | 6.0 | 0.00 | 0.00 | 0.00 | 94 | 1016.0 |
| 20260505080511 | 54 | 184 | 3.0 | 4.0 | 0.00 | 0.00 | 0.00 | 94 | 1016.1 |
| 20260505080008 | 54 | 176 | 3.0 | 7.0 | 0.00 | 0.00 | 0.00 | 94 | 1016.1 |
| 20260505075504 | 54 | 239 | 3.0 | 3.0 | 0.00 | 0.00 | 0.00 | 94 | 1016.0 |
| 20260505075001 | 54 | 197 | 1.0 | 4.0 | 0.00 | 0.00 | 0.00 | 93 | 1015.9 |
| 20260505074458 | 54 | 196 | 1.0 | 4.0 | 0.00 | 0.00 | 0.00 | 93 | 1015.8 |
| 20260505073955 | 54 | 261 | 4.0 | 9.0 | 0.00 | 0.00 | 0.00 | 93 | 1016.0 |
| 20260505073453 | 54 | 241 | 3.0 | 4.0 | 0.00 | 0.00 | 0.00 | 93 | 1016.0 |
| 20260505072950 | 54 | 255 | 3.0 | 6.0 | 0.00 | 0.00 | 0.00 | 93 | 1016.1 |
| 20260505072446 | 54 | 221 | 2.0 | 3.0 | 0.00 | 0.00 | 0.00 | 92 | 1016.0 |
| 20260505071942 | 54 | 193 | 3.0 | 6.0 | 0.00 | 0.00 | 0.00 | 92 | 1016.2 |
| 20260505071438 | 54 | 222 | 4.0 | 6.0 | 0.00 | 0.00 | 0.00 | 92 | 1016.1 |
| 20260505070937 | 54 | 214 | 1.0 | 2.0 | 0.00 | 0.00 | 0.00 | 92 | 1016.0 |
| 20260505070433 | 54 | 241 | 1.0 | 2.0 | 0.00 | 0.00 | 0.00 | 92 | 1015.9 |
| 20260505065929 | 54 | 208 | 3.0 | 6.0 | 0.00 | 0.00 | 0.00 | 92 | 1016.0 |
| 20260505065426 | 54 | 208 | 6.0 | 7.0 | 0.00 | 0.00 | 0.00 | 92 | 1015.8 |
| 20260505064922 | 54 | 178 | 1.0 | 6.0 | 0.00 | 0.00 | 0.00 | 92 | 1016.0 |
| 20260505064419 | 54 | 210 | 3.0 | 4.0 | 0.00 | 0.00 | 0.00 | 92 | 1016.1 |
| 20260505063918 | 54 | 205 | 1.0 | 4.0 | 0.00 | 0.00 | 0.00 | 92 | 1015.9 |
| 20260505063414 | 54 | 150 | 5.0 | 7.0 | 0.00 | 0.00 | 0.00 | 92 | 1015.9 |
| 20260505062910 | 54 | 225 | 4.0 | 6.0 | 0.00 | 0.00 | 0.00 | 92 | 1016.1 |
| 20260505062408 | 54 | 214 | 4.0 | 7.0 | 0.00 | 0.00 | 0.00 | 92 | 1016.2 |
| 20260505061904 | 54 | 191 | 3.0 | 3.0 | 0.00 | 0.00 | 0.00 | 92 | 1016.2 |
| 20260505061403 | 54 | 197 | 4.0 | 6.0 | 0.00 | 0.00 | 0.00 | 92 | 1016.2 |
| 20260505060900 | 54 | 206 | 3.0 | 3.0 | 0.00 | 0.00 | 0.00 | 92 | 1016.4 |
| 20260505060356 | 55 | 199 | 2.0 | 4.0 | 0.00 | 0.00 | 0.00 | 92 | 1016.2 |
| 20260505055852 | 55 | 207 | 5.0 | 7.0 | 0.00 | 0.00 | 0.00 | 92 | 1016.3 |
| 20260505055349 | 55 | 231 | 2.0 | 6.0 | 0.00 | 0.00 | 0.00 | 91 | 1016.4 |
| 20260505054846 | 55 | 202 | 2.0 | 6.0 | 0.00 | 0.00 | 0.00 | 91 | 1016.3 |
| 20260505054343 | 55 | 197 | 4.0 | 7.0 | 0.00 | 0.00 | 0.00 | 91 | 1016.4 |
| 20260505053841 | 55 | 217 | 3.0 | 8.0 | 0.00 | 0.00 | 0.00 | 91 | 1016.3 |
| 20260505053338 | 55 | 277 | 2.0 | 6.0 | 0.00 | 0.00 | 0.00 | 91 | 1016.4 |
| 20260505052834 | 55 | 195 | 2.0 | 7.0 | 0.00 | 0.00 | 0.00 | 92 | 1016.5 |
| 20260505052331 | 55 | 220 | 2.0 | 8.0 | 0.00 | 0.00 | 0.00 | 92 | 1016.4 |
| 20260505051829 | 55 | 216 | 1.0 | 3.0 | 0.00 | 0.00 | 0.00 | 92 | 1016.3 |
| 20260505051326 | 55 | 215 | 2.0 | 6.0 | 0.00 | 0.00 | 0.00 | 92 | 1016.5 |
| 20260505050824 | 55 | 205 | 2.0 | 6.0 | 0.00 | 0.00 | 0.00 | 92 | 1016.5 |
| 20260505050323 | 55 | 183 | 2.0 | 4.0 | 0.00 | 0.00 | 0.00 | 92 | 1016.5 |
| 20260505041746 | 55 | 224 | 3.0 | 9.0 | 0.00 | 0.00 | 0.00 | 89 | 1016.8 |
| 20260505041243 | 55 | 244 | 1.0 | 2.0 | 0.00 | 0.00 | 0.00 | 89 | 1016.7 |
| 20260505040741 | 55 | 218 | 3.0 | 7.0 | 0.00 | 0.00 | 0.00 | 89 | 1016.7 |
| 20260505040238 | 55 | 205 | 2.0 | 4.0 | 0.00 | 0.00 | 0.00 | 90 | 1016.7 |
| 20260505035735 | 55 | 191 | 2.0 | 6.0 | 0.00 | 0.00 | 0.00 | 89 | 1016.8 |
| 20260505035230 | 55 | 215 | 3.0 | 4.0 | 0.00 | 0.00 | 0.00 | 89 | 1016.8 |
| 20260505034728 | 55 | 210 | 1.0 | 3.0 | 0.00 | 0.00 | 0.00 | 89 | 1016.8 |
| 20260505034225 | 55 | 241 | 2.0 | 4.0 | 0.00 | 0.00 | 0.00 | 88 | 1016.8 |
| 20260505033721 | 56 | 241 | 3.0 | 4.0 | 0.00 | 0.00 | 0.00 | 87 | 1016.7 |
| 20260505033219 | 56 | 231 | 6.0 | 8.0 | 0.00 | 0.00 | 0.00 | 87 | 1016.8 |
| 20260505032717 | 56 | 246 | 2.0 | 6.0 | 0.00 | 0.00 | 0.00 | 87 | 1016.8 |
| 20260505032212 | 56 | 239 | 1.0 | 4.0 | 0.00 | 0.00 | 0.00 | 87 | 1016.6 |
| 20260505031710 | 56 | 223 | 2.0 | 3.0 | 0.00 | 0.00 | 0.00 | 86 | 1016.6 |
| 20260505031206 | 56 | 213 | 5.0 | 7.0 | 0.00 | 0.00 | 0.00 | 86 | 1016.8 |
| 20260505030703 | 56 | 218 | 4.0 | 6.0 | 0.00 | 0.00 | 0.00 | 86 | 1016.8 |
| 20260505030159 | 56 | 246 | 2.0 | 4.0 | 0.00 | 0.00 | 0.00 | 86 | 1016.8 |
| 20260505025655 | 56 | 232 | 3.0 | 7.0 | 0.00 | 0.00 | 0.00 | 86 | 1016.8 |
| 20260505025154 | 55 | 203 | 3.0 | 8.0 | 0.00 | 0.00 | 0.00 | 86 | 1016.8 |
| 20260505024651 | 55 | 238 | 2.0 | 7.0 | 0.00 | 0.00 | 0.00 | 87 | 1016.8 |
| 20260505024148 | 56 | 204 | 4.0 | 7.0 | 0.00 | 0.00 | 0.00 | 86 | 1016.8 |
| 20260505023646 | 56 | 231 | 2.0 | 10.0 | 0.00 | 0.00 | 0.00 | 86 | 1016.7 |
| 20260505023143 | 56 | 214 | 5.0 | 7.0 | 0.00 | 0.00 | 0.00 | 85 | 1016.9 |
| 20260505022640 | 56 | 206 | 5.0 | 8.0 | 0.00 | 0.00 | 0.00 | 85 | 1016.8 |
| 20260505022137 | 56 | 220 | 5.0 | 9.0 | 0.00 | 0.00 | 0.00 | 85 | 1016.8 |
| 20260505021634 | 56 | 205 | 4.0 | 8.0 | 0.00 | 0.00 | 0.00 | 84 | 1016.9 |
| 20260505021131 | 56 | 242 | 3.0 | 4.0 | 0.00 | 0.00 | 0.00 | 84 | 1016.9 |
| 20260505020626 | 56 | 264 | 4.0 | 8.0 | 0.00 | 0.00 | 0.00 | 84 | 1016.9 |
| 20260505020122 | 55 | 243 | 2.0 | 4.0 | 0.00 | 0.00 | 0.00 | 86 | 1017.0 |
| 20260505015620 | 55 | 241 | 3.0 | 6.0 | 0.00 | 0.00 | 0.00 | 86 | 1017.0 |
| 20260505015116 | 55 | 249 | 2.0 | 4.0 | 0.00 | 0.00 | 0.00 | 86 | 1016.7 |
| 20260505014613 | 55 | 227 | 1.0 | 7.0 | 0.00 | 0.00 | 0.00 | 86 | 1016.8 |
| 20260505014110 | 55 | 236 | 4.0 | 8.0 | 0.00 | 0.00 | 0.00 | 87 | 1016.7 |
| 20260505013607 | 55 | 265 | 2.0 | 10.0 | 0.00 | 0.00 | 0.00 | 87 | 1016.8 |
| 20260505013104 | 55 | 230 | 4.0 | 8.0 | 0.00 | 0.00 | 0.00 | 87 | 1016.8 |
| 20260505012602 | 55 | 222 | 6.0 | 9.0 | 0.00 | 0.00 | 0.00 | 87 | 1016.8 |
| 20260505012058 | 55 | 221 | 5.0 | 7.0 | 0.00 | 0.00 | 0.00 | 87 | 1016.6 |
| 20260505011554 | 55 | 228 | 4.0 | 8.0 | 0.00 | 0.00 | 0.00 | 87 | 1016.4 |
| 20260505011052 | 55 | 231 | 1.0 | 4.0 | 0.00 | 0.00 | 0.00 | 87 | 1016.6 |
| 20260505010547 | 55 | 253 | 6.0 | 8.0 | 0.00 | 0.00 | 0.00 | 87 | 1016.3 |
| 20260505010044 | 55 | 238 | 4.0 | 11.0 | 0.00 | 0.00 | 0.00 | 86 | 1016.5 |
| 20260505005540 | 55 | 210 | 3.0 | 8.0 | 0.00 | 0.00 | 0.00 | 86 | 1016.4 |
| 20260505005038 | 55 | 134 | 6.0 | 11.0 | 0.00 | 0.00 | 0.00 | 85 | 1016.2 |
| 20260505004534 | 55 | 222 | 5.0 | 8.0 | 0.00 | 0.00 | 0.00 | 85 | 1016.2 |
| 20260505004026 | 55 | 226 | 9.0 | 14.0 | 0.00 | 0.00 | 0.00 | 85 | 1016.1 |
| 20260505003523 | 55 | 220 | 3.0 | 7.0 | 0.00 | 0.00 | 0.00 | 85 | 1016.1 |
| 20260505003020 | 55 | 197 | 5.0 | 10.0 | 0.00 | 0.00 | 0.00 | 84 | 1016.1 |
| 20260505002515 | 55 | 178 | 6.0 | 9.0 | 0.00 | 0.00 | 0.00 | 84 | 1015.7 |
| 20260505002014 | 55 | 204 | 1.0 | 7.0 | 0.00 | 0.00 | 0.00 | 83 | 1015.9 |
| 20260505001511 | 55 | 205 | 9.0 | 10.0 | 0.00 | 0.00 | 0.00 | 83 | 1015.7 |
| 20260505001008 | 55 | 239 | 4.0 | 4.0 | 0.00 | 0.00 | 0.00 | 84 | 1015.7 |
| 20260505000505 | 55 | 241 | 4.0 | 9.0 | 0.00 | 0.00 | 0.00 | 84 | 1015.8 |
| 20260505000002 | 55 | 197 | 10.0 | 13.0 | 0.00 | 0.00 | 0.00 | 85 | 1015.7 |
| 20260504235459 | 55 | 166 | 3.0 | 8.0 | 0.00 | 0.00 | 0.00 | 85 | 1015.4 |
| 20260504234956 | 55 | 244 | 5.0 | 8.0 | 0.00 | 0.00 | 0.00 | 86 | 1015.4 |
| 20260504234453 | 55 | 167 | 3.0 | 11.0 | 0.00 | 0.00 | 0.00 | 86 | 1015.5 |
| 20260504233949 | 55 | 238 | 6.0 | 9.0 | 0.00 | 0.00 | 0.00 | 85 | 1015.4 |
| 20260504233445 | 55 | 188 | 5.0 | 8.0 | 0.00 | 0.00 | 0.00 | 86 | 1015.3 |
| 20260504232942 | 55 | 234 | 2.0 | 6.0 | 0.00 | 0.00 | 0.00 | 85 | 1015.4 |
| 20260504232439 | 55 | 176 | 4.0 | 15.0 | 0.00 | 0.00 | 0.00 | 86 | 1015.3 |
| 20260504231937 | 55 | 206 | 2.0 | 10.0 | 0.00 | 0.00 | 0.00 | 86 | 1015.5 |
| 20260504231433 | 55 | 159 | 4.0 | 14.0 | 0.00 | 0.00 | 0.00 | 85 | 1015.5 |
| 20260504230929 | 55 | 199 | 9.0 | 15.0 | 0.00 | 0.00 | 0.00 | 84 | 1015.6 |
| 20260504230426 | 55 | 231 | 9.0 | 14.0 | 0.00 | 0.00 | 0.00 | 84 | 1015.7 |
| 20260504225925 | 55 | 173 | 4.0 | 6.0 | 0.00 | 0.00 | 0.00 | 84 | 1015.3 |
| 20260504225421 | 56 | 216 | 3.0 | 7.0 | 0.00 | 0.00 | 0.00 | 84 | 1015.5 |
| 20260504224919 | 56 | 203 | 1.0 | 6.0 | 0.00 | 0.00 | 0.00 | 83 | 1015.4 |
| 20260504224415 | 56 | 248 | 5.0 | 6.0 | 0.00 | 0.00 | 0.00 | 83 | 1015.4 |
| 20260504223913 | 56 | 119 | 2.0 | 10.0 | 0.00 | 0.00 | 0.00 | 83 | 1015.4 |
| 20260504223408 | 56 | 229 | 1.0 | 7.0 | 0.00 | 0.00 | 0.00 | 82 | 1015.5 |
| 20260504222904 | 57 | 233 | 8.0 | 11.0 | 0.00 | 0.00 | 0.00 | 81 | 1015.6 |
| 20260504222401 | 56 | 259 | 6.0 | 10.0 | 0.00 | 0.00 | 0.00 | 82 | 1015.6 |
| 20260504221900 | 56 | 206 | 4.0 | 10.0 | 0.00 | 0.00 | 0.00 | 82 | 1015.5 |
| 20260504221356 | 56 | 194 | 4.0 | 9.0 | 0.00 | 0.00 | 0.00 | 81 | 1015.5 |
| 20260504220853 | 57 | 212 | 4.0 | 13.0 | 0.00 | 0.00 | 0.00 | 81 | 1015.7 |
| 20260504220350 | 57 | 243 | 8.0 | 11.0 | 0.00 | 0.00 | 0.00 | 79 | 1015.6 |
| 20260504215847 | 57 | 182 | 8.0 | 14.0 | 0.00 | 0.00 | 0.00 | 79 | 1015.7 |
| 20260504215343 | 57 | 242 | 4.0 | 7.0 | 0.00 | 0.00 | 0.00 | 79 | 1015.5 |
| 20260504214839 | 57 | 197 | 5.0 | 10.0 | 0.00 | 0.00 | 0.00 | 80 | 1015.7 |
| 20260504214337 | 57 | 215 | 4.0 | 11.0 | 0.00 | 0.00 | 0.00 | 79 | 1015.8 |
| 20260504213833 | 57 | 237 | 3.0 | 7.0 | 0.00 | 0.00 | 0.00 | 78 | 1015.7 |
| 20260504213329 | 57 | 233 | 11.0 | 18.0 | 0.00 | 0.00 | 0.00 | 78 | 1016.0 |
| 20260504212827 | 57 | 237 | 3.0 | 13.0 | 0.00 | 0.00 | 0.00 | 78 | 1015.8 |
| 20260504212323 | 57 | 131 | 6.0 | 10.0 | 0.00 | 0.00 | 0.00 | 77 | 1015.7 |
| 20260504211821 | 57 | 223 | 11.0 | 15.0 | 0.00 | 0.00 | 0.00 | 76 | 1015.8 |
| 20260504211316 | 57 | 226 | 5.0 | 7.0 | 0.00 | 0.00 | 0.00 | 77 | 1015.7 |
| 20260504210814 | 58 | 253 | 8.0 | 14.0 | 0.00 | 0.00 | 0.00 | 75 | 1015.7 |
| 20260504210311 | 58 | 232 | 6.0 | 15.0 | 0.00 | 0.00 | 0.00 | 76 | 1015.6 |
| 20260504205808 | 58 | 259 | 8.0 | 17.0 | 0.00 | 0.00 | 0.00 | 75 | 1015.6 |
| 20260504205306 | 58 | 145 | 6.0 | 15.0 | 0.00 | 0.00 | 0.00 | 75 | 1015.7 |
| 20260504204804 | 59 | 228 | 9.0 | 13.0 | 0.00 | 0.00 | 0.00 | 74 | 1015.7 |
| 20260504204302 | 58 | 226 | 6.0 | 11.0 | 0.00 | 0.00 | 0.00 | 74 | 1015.8 |
| 20260504203801 | 59 | 212 | 10.0 | 13.0 | 0.00 | 0.00 | 0.00 | 73 | 1015.9 |
| 20260504203258 | 58 | 200 | 4.0 | 14.0 | 0.00 | 0.00 | 0.00 | 74 | 1015.7 |
| 20260504202753 | 59 | 224 | 10.0 | 15.0 | 0.00 | 0.00 | 0.00 | 73 | 1015.7 |
| 20260504202250 | 59 | 232 | 12.0 | 14.0 | 0.00 | 0.00 | 0.00 | 72 | 1015.8 |
| 20260504201747 | 60 | 231 | 10.0 | 11.0 | 0.00 | 0.00 | 0.00 | 72 | 1015.7 |
| 20260504201244 | 60 | 172 | 2.0 | 9.0 | 0.00 | 0.00 | 0.00 | 71 | 1015.8 |
| 20260504200742 | 59 | 242 | 8.0 | 13.0 | 0.00 | 0.00 | 0.00 | 71 | 1016.0 |
| 20260504200238 | 60 | 248 | 8.0 | 18.0 | 0.00 | 0.00 | 0.00 | 70 | 1015.8 |
| 20260504195735 | 61 | 246 | 6.0 | 11.0 | 0.00 | 0.00 | 0.00 | 69 | 1016.0 |
| 20260504195230 | 62 | 237 | 13.0 | 17.0 | 0.00 | 0.00 | 0.00 | 67 | 1016.0 |
| 20260504194728 | 62 | 226 | 6.0 | 15.0 | 0.00 | 0.00 | 0.00 | 67 | 1016.1 |
| 20260504194224 | 62 | 260 | 3.0 | 11.0 | 0.00 | 0.00 | 0.00 | 68 | 1016.1 |
| 20260504193720 | 62 | 143 | 6.0 | 10.0 | 0.00 | 0.00 | 0.00 | 67 | 1016.0 |
| 20260504193218 | 62 | 239 | 5.0 | 14.0 | 0.00 | 0.00 | 0.00 | 67 | 1016.1 |
| 20260504192716 | 62 | 214 | 8.0 | 14.0 | 0.00 | 0.00 | 0.00 | 66 | 1016.3 |
| 20260504192214 | 62 | 219 | 2.0 | 10.0 | 0.00 | 0.00 | 0.00 | 65 | 1016.2 |
| 20260504191712 | 63 | 202 | 11.0 | 14.0 | 0.00 | 0.00 | 0.00 | 65 | 1016.1 |
| 20260504191209 | 62 | 223 | 2.0 | 10.0 | 0.00 | 0.00 | 0.00 | 67 | 1016.2 |
| 20260504190704 | 62 | 250 | 5.0 | 11.0 | 0.00 | 0.00 | 0.00 | 66 | 1016.2 |
| 20260504190201 | 62 | 203 | 11.0 | 16.0 | 0.00 | 0.00 | 0.00 | 65 | 1016.3 |
| 20260504185657 | 63 | 244 | 5.0 | 10.0 | 0.00 | 0.00 | 0.00 | 65 | 1016.3 |
| 20260504185154 | 63 | 220 | 4.0 | 10.0 | 0.00 | 0.00 | 0.00 | 66 | 1016.4 |
| 20260504184650 | 64 | 195 | 2.0 | 8.0 | 0.00 | 0.00 | 0.00 | 63 | 1016.4 |
| 20260504184145 | 62 | 201 | 7.0 | 15.0 | 0.00 | 0.00 | 0.00 | 65 | 1016.6 |
| 20260504183642 | 62 | 218 | 8.0 | 16.0 | 0.00 | 0.00 | 0.00 | 65 | 1016.6 |
| 20260504183139 | 62 | 224 | 4.0 | 7.0 | 0.00 | 0.00 | 0.00 | 66 | 1016.7 |
| 20260504182637 | 62 | 271 | 7.0 | 17.0 | 0.00 | 0.00 | 0.00 | 67 | 1016.6 |
| 20260504182134 | 62 | 221 | 8.0 | 13.0 | 0.00 | 0.00 | 0.00 | 66 | 1016.6 |
| 20260504181632 | 63 | 195 | 5.0 | 14.0 | 0.00 | 0.00 | 0.00 | 67 | 1016.7 |
| 20260504181129 | 62 | 239 | 5.0 | 16.0 | 0.00 | 0.00 | 0.00 | 66 | 1016.8 |
| 20260504180628 | 62 | 236 | 3.0 | 11.0 | 0.00 | 0.00 | 0.00 | 66 | 1017.0 |
| 20260504180126 | 62 | 206 | 6.0 | 9.0 | 0.00 | 0.00 | 0.00 | 67 | 1016.8 |
| 20260504175624 | 61 | 242 | 3.0 | 10.0 | 0.00 | 0.00 | 0.00 | 69 | 1016.7 |
| 20260504175120 | 61 | 221 | 4.0 | 11.0 | 0.00 | 0.00 | 0.00 | 68 | 1017.0 |
| 20260504174618 | 61 | 229 | 4.0 | 9.0 | 0.00 | 0.00 | 0.00 | 69 | 1017.0 |
| 20260504174114 | 60 | 253 | 10.0 | 14.0 | 0.00 | 0.00 | 0.00 | 70 | 1016.9 |
| 20260504173611 | 60 | 201 | 6.0 | 17.0 | 0.00 | 0.00 | 0.00 | 71 | 1016.9 |
| 20260504173109 | 61 | 237 | 7.0 | 14.0 | 0.00 | 0.00 | 0.00 | 70 | 1017.1 |
| 20260504172605 | 60 | 138 | 4.0 | 14.0 | 0.00 | 0.00 | 0.00 | 71 | 1017.0 |
| 20260504172102 | 60 | 209 | 6.0 | 15.0 | 0.00 | 0.00 | 0.00 | 72 | 1017.0 |
| 20260504171558 | 60 | 226 | 9.0 | 13.0 | 0.00 | 0.00 | 0.00 | 71 | 1017.4 |
| 20260504171055 | 60 | 205 | 5.0 | 14.0 | 0.00 | 0.00 | 0.00 | 72 | 1017.5 |
| 20260504170551 | 61 | 224 | 7.0 | 15.0 | 0.00 | 0.00 | 0.00 | 71 | 1017.6 |
| 20260504150930 | 60 | 227 | 5.0 | 11.0 | 0.00 | 0.00 | 0.00 | 66 | 1018.4 |
| 20260504150427 | 59 | 199 | 3.0 | 11.0 | 0.00 | 0.00 | 0.00 | 68 | 1018.6 |
| 20260504140853 | 60 | 227 | 6.0 | 11.0 | 0.00 | 0.00 | 0.00 | 65 | 1018.7 |
| 20260504140349 | 59 | 179 | 3.0 | 8.0 | 0.00 | 0.00 | 0.00 | 61 | 1018.7 |
| 20260504130817 | 58 | 206 | 7.0 | 9.0 | 0.00 | 0.00 | 0.00 | 60 | 1019.1 |
| 20260504130313 | 57 | 253 | 3.0 | 14.0 | 0.00 | 0.00 | 0.00 | 61 | 1019.3 |
| 20260504120237 | 55 | 214 | 3.0 | 7.0 | 0.00 | 0.00 | 0.00 | 63 | 1019.2 |